Regional Weather Roundup
Issued by NWS Cleveland, OH

Home | Current Version | Previous Version | Graphics & Text | Print | Product List | Glossary On
Versions: 1 2 3 4 5 6 7 8 9 10 11 12 13 14 15 16 17 18 19 20 21 22 23 24 25 26 27 28 29 30 31 32 33 34 35 36 37 38 39 40 41 42 43 44 45 46 47 48 49 50
973
ASUS41 KCLE 301100
RWRCLE
OHIO REGIONAL WEATHER ROUNDUP
NATIONAL WEATHER SERVICE WILMINGTON, OH
700 AM EDT SAT JUL 30 2016

NOTE: "FAIR" INDICATES FEW OR NO CLOUDS BELOW 12,000 FEET WITH NO
SIGNIFICANT WEATHER AND/OR OBSTRUCTIONS TO VISIBILITY.

OHZ001>008-015>018-024>027-034-035-043-044-301200-
   NORTHWEST OHIO

CITY           SKY/WX    TMP DP  RH WIND       PRES   REMARKS
DEFIANCE       CLOUDY    66  61  84 NE5       29.94S
FINDLAY        CLOUDY    72  68  87 CALM      29.92R FOG
TOLEDO EXPRESS MOCLDY    65  63  93 N5        29.93R
TOLEDO EXEC    FAIR      70  68  93 NW6       29.93R
LIMA           FAIR      66  66 100 CALM      29.93S FOG
$$

OHZ009>014-019>023-028>033-038-089-301200-
   NORTHEAST OHIO

CITY           SKY/WX    TMP DP  RH WIND       PRES   REMARKS
CLE-HOPKINS    MOCLDY    73  65  75 SE6       29.95R
CLE-LAKEFRONT  FAIR      73  66  78 SE6       29.92R
CUY CO. ARPT   NOT AVBL
LORAIN-ELYRIA  MOCLDY    68  66  93 SE3       29.94R FOG
ASHTABULA      CLOUDY    68  68 100 E7        29.97S
AKRON-CANTON   MOCLDY    69  66  90 N5        29.95R FOG
WOOSTER        NOT AVBL
MANSFIELD      LGT RAIN  68  67  96 CALM      29.95R FOG
YOUNGSTOWN     CLOUDY    67  65  93 N3        29.96R
$$

OHZ042-051>053-060>062-070>072-077>081-301200-
  SOUTHWEST OHIO

CITY           SKY/WX    TMP DP  RH WIND       PRES   REMARKS
CINC-COVINGTON FOG       70  70 100 W5        29.95R VSB 1/2
CINC-LUNKEN    CLOUDY    70  70 100 CALM      29.94R FOG
HAMILTON       MOCLDY    70  68  93 CALM      29.94R FOG
DAYTON         NOT AVBL
WRIGHT-PAT AFB NOT AVBL
DAYTON GENERAL CLOUDY    70  67  90 W6        29.94R FOG
WILMINGTON     CLOUDY    69  69 100 W6        29.95R FOG
$$

OHZ036-037-039>041-045>050-054>059-063>069-073>076-082>088-301200-
  CENTRAL AND SOUTHEAST OHIO

CITY           SKY/WX    TMP DP  RH WIND       PRES   REMARKS
COLUMBUS       CLOUDY    71  69  93 S5        29.93R
OSU AIRPORT    CLOUDY    71  69  93 S5        29.94R
BOLTON FIELD   NOT AVBL
RICKENBACK AFB NOT AVBL
NEWARK         FOG       70  69  97 CALM      29.94R VSB 3/4
MARION         MOCLDY    69  66  90 SE5       29.94R FOG
LANCASTER      CLOUDY    70  69  97 CALM      29.95R
ZANESVILLE     MOCLDY    70  67  90 CALM      29.94R
NEW PHILLY     CLOUDY    71  67  87 S5        29.94R
$$




USA.gov is the U.S. government's official web portal to all federal, state and local government web resources and services.